Tracking 18823 objects as of 24-October-2017
HD Live streaming from Space Station
objects crossing your sky now

BEESAT 4

Track BEESAT 4 now!
10-day predictions
BEESAT 4 is classified as:


NORAD ID: 41619
Int'l Code: 2016-040W
Perigee: 501.3 km
Apogee: 516.8 km
Inclination: 97.4 °
Period: 94.7 minutes
Semi major axis: 6880 km
RCS: Unknown
Launch date: June 22, 2016
Source: Germany (GER)
Launch site: SRIHARIKOTA (SRI)
Uplink (MHz):
Downlink (MHz): 435.950
Beacon (MHz): 435.950
Mode: 4800bps GMSK CW
Call sign: DP0BEH
Status: Active

aabbcc
Your satellite tracking list
Your tracking list is empty





NASA's NSSDC Master Catalog

Two Line Element Set (TLE):
1 41619U 16040W   17297.13770062  .00002630  00000-0  12049-3 0  9994
2 41619  97.4478 358.2169 0011250 345.1576  14.9328 15.21313326 62198
Source of the keplerian elements: AFSPC